Probability
2 9 25 42 58 73 82 76 61 40 19 6 1 0 0 0 0 0 0 0 0 0 0 0 0 1 4 17 35 48 60 72 63 35 11 3 1 0 0 0 0 0 0
1 4 10 19 29 44 58 65 60 44 25 9 2 0 0 0 0 0 0 0 0 0 0 0 0 0 3 13 26 39 51 58 48 23 6 1 0 0 0 0 0 0 0
0 0 0 1 5 12 23 37 43 39 29 17 7 3 1 0 0 0 0 0 0 0 0 0 0 0 2 8 16 25 31 31 23 10 1 0 0 0 0 0 0 0 0
0 0 0 0 0 0 4 11 17 21 24 24 18 10 3 0 0 0 0 0 0 0 0 0 0 0 2 5 8 10 10 8 6 3 1 0 0 0 0 0 0 0 0
0 0 0 0 0 0 0 1 3 6 14 24 28 19 6 1 0 0 0 0 0 0 0 0 0 0 1 1 1 1 0 1 1 1 0 0 0 0 0 0 0 0 0
0 0 0 0 0 0 0 0 0 1 6 19 27 22 9 1 0 0 0 0 0 0 0 0 0 0 0 0 0 0 0 0 0 0 0 0 0 0 0 0 0 0 0
0 0 0 0 0 0 0 0 0 0 4 11 19 18 9 1 0 0 0 0 0 0 0 0 0 0 0 0 0 0 0 0 0 0 0 0 0 0 0 0 0 0 0
0 0 0 0 0 0 0 0 0 0 2 6 9 10 6 1 0 0 0 0 0 0 0 0 0 0 0 0 0 0 0 0 0 0 0 0 0 0 0 0 0 0 0
0 0 0 0 0 0 0 0 0 0 0 2 3 4 3 1 0 0 0 0 0 0 0 0 0 0 0 0 0 0 0 0 0 0 0 0 0 0 0 0 0 0 0
0 0 0 0 0 0 0 0 0 0 0 0 1 1 1 1 0 0 0 0 0 0 0 0 0 0 0 0 0 0 0 0 0 0 0 0 0 0 0 0 0 0 0
0 0 0 0 0 0 0 0 0 0 0 0 0 0 1 1 0 0 0 0 0 0 0 0 0 0 0 0 0 0 0 0 0 0 0 0 0 0 0 0 0 0 0
0 0 0 0 0 0 0 0 0 0 0 0 0 0 1 0 0 0 0 0 0 0 0 0 0 0 0 0 0 0 0 0 0 0 0 0 0 0 0 0 0 0 0
0 0 0 0 0 0 0 0 0 0 0 0 0 0 0 0 0 0 0 0 0 0 0 0 0 0 0 0 0 0 0 0 0 0 0 0 0 0 0 0 0 0 0
0 0 0 0 0 0 0 0 0 0 0 0 0 0 0 0 0 0 0 0 0 0 0 0 0 0 0 0 0 0 0 0 0 0 0 0 0 0 0 0 0 0 0
0 0 0 0 0 0 0 0 0 0 0 0 0 0 0 0 0 0 0 0 0 0 0 0 0 0 0 0 0 0 0 0 0 0 0 0 0 0 0 0 0 0 0
0 0 1 0 0 0 0 0 0 0 0 0 0 0 0 0 0 0 0 0 0 0 0 0 0 0 0 0 0 0 0 0 0 0 0 0 0 0 0 0 0 0 0
0 0 0 0 0 0 0 0 0 0 0 0 0 0 0 0 0 0 0 0 0 0 0 0 0 0 0 0 0 0 0 0 0 0 0 0 0 0 0 0 0 0 0
0 0 0 0 0 0 0 0 0 0 0 0 0 0 0 0 0 0 0 0 0 0 0 0 0 0 0 0 0 0 0 0 0 0 0 0 0 0 0 0 0 0 0
0 0 0 0 0 0 0 0 0 0 0 0 0 0 0 0 0 0 0 0 0 0 0 0 0 0 0 0 0 0 0 0 0 0 0 0 0 0 0 0 0 0 0
0 0 0 0 0 0 0 0 0 0 0 0 0 0 0 0 0 0 0 0 0 0 0 0 0 0 0 0 0 0 0 0 0 0 0 0 0 0 0 0 0 0 0
0 0 0 0 0 0 0 0 0 0 0 0 0 0 0 0 0 0 0 0 0 0 0 0 0 0 0 0 0 0 0 0 0 0 0 0 0 0 0 0 0 0 0
0 0 0 0 0 0 0 0 0 0 0 0 0 0 0 0 0 0 0 0 0 0 0 0 0 0 0 0 0 0 0 0 0 0 0 0 0 0 0 0 0 0 0
0 0 0 0 0 0 0 0 0 0 0 0 0 0 0 0 0 0 0 0 0 0 0 0 0 0 0 0 0 0 0 0 0 0 0 0 0 0 0 0 0 0 0
0 0 0 0 0 0 0 0 0 0 0 0 0 0 0 0 0 0 0 0 0 0 0 0 0 0 0 0 0 0 0 0 0 0 0 0 0 0 0 0 0 0 0
0 0 0 0 0 0 0 0 0 0 0 0 0 0 0 0 0 0 0 0 0 0 0 0 0 0 0 0 0 0 0 0 0 0 0 0 0 0 0 0 0 0 0
0 0 0 0 0 0 0 0 0 0 0 0 0 0 0 0 0 0 0 0 0 0 0 0 0 0 0 0 0 0 0 0 0 0 0 0 0 0 0 0 0 0 0
Wind_Speed
13 13 12 10 9 8 8 9 9 9 9 9 9 10 10 10 10 10 11 11 10 9 8 8 9 9 7 7 7 7 7 6 5 5 5 6 7 7 6 6 6 7 9
13 13 12 12 11 10 10 10 11 11 11 11 10 10 10 9 9 9 10 9 8 8 7 6 7 6 6 6 5 6 6 6 8 11 7 5 6 7 7 6 7 9 10
13 12 12 12 12 12 12 12 12 12 12 12 11 11 9 8 8 8 7 7 6 6 5 5 5 4 2 1 2 3 4 6 9 11 9 6 6 7 8 9 10 8 11
11 11 11 11 11 11 12 12 13 13 13 14 13 11 10 9 8 7 5 4 4 4 4 4 4 4 4 5 5 6 8 9 9 9 8 7 7 8 8 9 9 8 8
9 10 10 10 10 10 11 11 12 13 14 14 14 12 11 9 7 6 5 3 2 1 2 3 5 7 8 7 6 7 8 7 6 6 7 8 8 8 8 8 9 9 8
11 12 11 12 12 12 11 12 12 12 13 14 14 13 13 9 6 3 6 4 2 1 2 3 5 7 11 12 12 10 7 6 5 5 6 8 8 7 6 7 8 8 7
14 14 13 13 12 12 12 12 12 12 12 12 13 14 14 10 11 9 7 5 4 3 3 3 5 8 9 10 12 11 9 7 2 3 8 8 8 7 6 6 4 5 6
16 15 15 14 14 13 12 12 11 10 10 10 11 13 13 11 14 12 8 8 5 5 4 5 7 8 8 9 10 10 8 8 5 6 8 8 8 6 5 6 7 7 6
18 17 16 16 15 14 14 13 11 10 10 10 10 10 12 11 15 14 11 10 7 6 6 6 6 8 7 7 10 10 10 8 13 16 14 12 11 8 3 4 7 7 7
19 18 17 16 15 15 15 14 13 11 11 10 9 8 10 11 14 16 15 10 9 8 6 5 5 7 6 4 9 10 10 9 10 11 10 9 8 5 2 2 4 5 7
18 18 18 16 15 15 15 13 13 13 12 11 10 7 6 8 10 16 16 10 10 9 8 7 7 9 6 2 4 8 10 10 10 10 8 7 6 5 4 4 5 3 3
18 18 17 17 16 14 14 13 13 13 13 12 10 7 4 4 6 12 16 13 6 9 8 8 9 10 8 6 6 10 10 8 8 7 7 6 6 6 7 8 9 10 9
18 18 17 17 15 14 14 14 13 12 12 11 8 6 4 3 4 8 13 10 5 5 7 13 14 13 12 9 11 9 7 6 6 6 6 6 7 7 7 7 8 7 7
19 17 15 14 14 14 12 13 13 12 11 9 8 6 5 5 5 6 9 8 7 9 12 14 13 9 8 11 9 7 6 5 5 6 7 7 7 7 6 6 7 7 7
18 16 13 13 13 12 12 11 12 11 8 7 6 5 6 8 8 9 9 11 11 11 13 11 11 10 10 10 9 7 6 6 6 7 7 7 7 6 5 4 3 4 5
15 14 11 9 10 10 11 12 13 12 7 7 4 4 4 5 9 10 10 10 14 18 14 12 11 11 10 10 9 8 8 7 7 7 7 7 7 7 6 6 5 5 5
15 13 9 9 10 10 11 12 10 10 10 10 9 8 7 5 8 12 12 11 15 18 13 11 11 10 10 10 9 8 8 8 7 7 7 7 7 7 6 6 5 4 5
13 12 11 9 9 10 11 11 10 9 9 8 9 11 10 10 11 13 15 12 9 11 12 12 11 11 10 10 9 9 9 9 8 7 7 7 7 6 6 6 5 5 4
10 7 7 8 9 10 11 11 9 9 7 6 6 8 11 10 11 15 17 11 13 14 12 11 11 11 11 10 9 9 9 9 9 8 7 7 6 6 6 5 6 4 2
7 9 9 7 8 10 10 10 8 6 6 5 6 6 8 10 10 12 13 12 13 14 12 10 11 11 11 10 9 9 9 9 9 8 8 7 6 6 6 5 6 7 5
4 5 9 8 8 8 8 7 6 5 4 5 6 8 12 13 15 17 16 15 14 14 12 11 11 11 11 10 10 10 11 10 9 9 8 7 7 6 5 6 5 5 5
3 3 5 6 6 5 4 4 3 3 5 7 7 9 16 15 16 17 16 15 14 13 12 11 11 11 11 11 11 11 11 10 10 9 8 8 7 6 6 6 5 5 5
2 3 3 4 3 3 3 3 3 4 6 7 8 10 14 15 16 16 16 15 13 12 12 11 11 11 11 11 10 10 10 10 10 10 9 8 8 7 6 6 6 6 6
1 2 2 2 2 2 3 4 4 5 6 6 9 13 14 14 15 16 16 14 12 12 12 11 11 13 15 12 10 10 10 9 11 11 13 10 9 8 8 7 7 8 8
1 1 2 2 3 3 4 4 4 5 5 8 12 14 14 13 14 15 14 12 13 11 13 12 9 11 15 15 13 11 8 6 4 7 12 11 11 10 9 9 8 9 9
1 1 1 1 2 2 2 1 2 4 7 10 12 13 13 13 13 13 12 11 10 9 9 9 10 11 13 13 13 9 8 9 6 4 7 10 12 11 11 10 12 11 11
Wind_Direction
2 358 354 346 329 306 282 274 269 267 266 264 270 280 287 292 296 296 294 297 295 292 288 282 277 269 257 247 238 228 219 210 168 114 108 118 121 124 123 124 116 95 84
346 342 343 341 339 330 316 298 281 268 260 256 259 268 277 283 290 294 299 305 305 304 305 304 298 284 263 249 233 222 207 189 154 133 128 133 137 133 134 131 113 101 97
333 329 330 329 330 329 325 315 297 278 264 257 251 255 262 270 279 287 294 303 310 320 332 332 329 319 293 224 173 152 140 134 131 132 135 140 144 145 141 122 110 114 109
320 317 314 312 314 316 316 314 306 291 272 257 247 246 247 252 261 271 280 295 314 333 351 359 11 25 56 84 91 98 107 112 118 127 133 142 148 159 149 136 129 123 121
292 293 292 294 296 299 301 303 303 294 278 262 247 237 234 236 240 248 254 255 280 345 27 34 51 64 71 82 93 97 100 104 114 130 142 150 157 167 156 139 124 123 121
265 270 273 279 286 290 293 295 297 296 287 271 252 236 226 224 166 201 262 225 204 134 84 78 96 96 92 92 93 88 92 117 139 153 155 146 146 147 134 139 146 143 129
268 267 262 260 265 272 281 289 296 301 298 282 263 243 229 208 169 195 231 244 193 147 117 110 102 108 118 116 107 100 84 64 88 131 122 122 123 121 139 142 123 118 106
276 275 271 268 268 267 270 275 283 291 296 293 279 259 238 206 180 192 202 227 195 160 135 122 120 125 124 132 131 120 98 59 50 91 102 102 100 95 93 101 112 117 122
276 276 274 271 270 269 268 271 276 280 285 288 287 277 252 215 184 187 195 207 190 175 152 136 136 128 124 136 134 125 112 94 70 72 74 78 66 50 23 164 169 175 148
280 277 275 271 267 266 266 267 270 274 275 278 279 281 270 239 191 184 195 208 183 173 155 138 110 125 141 163 153 144 133 125 121 111 103 109 105 99 32 300 215 187 148
282 278 273 269 265 262 262 261 261 263 268 272 274 268 271 267 202 186 193 213 183 180 169 163 127 125 131 128 168 148 139 138 135 133 130 128 125 121 115 80 26 36 121
281 276 270 265 262 261 258 256 255 257 260 262 261 254 237 259 240 197 194 220 220 181 168 143 122 128 122 115 114 119 136 154 148 147 144 139 130 113 92 79 64 58 55
279 274 268 263 256 255 256 255 250 244 250 257 256 243 211 196 221 196 191 206 224 184 130 112 125 131 126 112 118 135 166 166 152 151 141 129 114 109 112 107 97 97 95
275 272 268 261 255 251 248 248 246 243 241 247 252 240 203 185 194 183 183 180 156 134 121 121 131 140 125 118 142 170 181 153 155 141 130 127 131 148 155 150 153 156 137
275 268 262 257 253 254 253 249 249 245 244 250 261 240 207 192 193 190 181 177 174 153 144 148 153 152 151 155 160 158 149 149 149 138 141 148 152 149 139 127 132 134 126
273 267 258 248 247 247 249 244 223 228 190 192 229 252 234 202 173 180 184 177 159 151 160 162 162 163 161 159 158 157 159 155 151 151 154 155 151 148 145 149 152 133 122
271 266 254 244 239 239 241 241 224 196 192 198 200 202 217 197 176 171 166 157 154 160 178 169 167 167 164 162 161 160 157 149 153 158 153 148 148 150 152 151 145 136 126
272 261 250 240 235 236 237 232 222 201 187 200 204 207 205 200 181 163 147 140 159 190 196 173 171 169 167 166 164 158 150 152 167 163 152 150 154 155 154 158 155 148 138
275 255 241 235 232 231 229 224 214 206 198 199 197 193 198 189 166 157 154 171 180 197 205 178 174 172 171 169 163 158 154 160 167 166 156 160 163 162 158 159 131 101 198
271 251 240 234 230 225 218 211 199 192 201 209 210 205 180 172 168 166 180 190 192 195 200 182 177 174 172 170 167 165 162 162 166 178 163 168 172 169 157 162 153 167 183
271 243 228 229 229 220 207 197 187 189 207 214 215 202 186 186 179 176 183 192 196 193 195 185 177 176 175 174 175 176 176 171 175 182 171 175 179 178 173 167 165 177 167
262 247 225 222 218 208 196 180 182 207 223 226 221 191 187 186 177 176 183 190 193 193 191 186 180 179 180 180 181 182 187 183 182 186 184 182 184 188 187 181 179 179 180
244 233 228 222 212 173 200 214 224 236 232 226 190 171 178 179 172 174 180 187 191 189 183 183 186 182 181 180 183 189 195 190 186 189 195 193 193 197 199 195 198 203 210
223 217 216 219 226 230 241 249 244 231 218 189 168 167 172 167 167 172 179 186 188 182 178 180 188 182 178 180 186 194 201 199 193 192 200 209 205 205 206 208 217 221 226
187 194 208 221 240 248 251 252 234 202 178 163 158 163 165 163 166 172 180 182 179 175 175 179 185 182 181 188 194 201 176 162 201 211 193 211 220 218 222 225 229 234 239
331 295 268 255 253 252 246 212 142 138 146 151 155 162 165 164 165 167 169 167 167 168 173 181 188 188 186 194 203 192 149 158 182 239 238 214 218 224 227 234 239 242 246